TimeBST,TemperatureF,Dew PointF,Humidity,Sea Level PressureIn,VisibilityMPH,Wind Direction,Wind SpeedMPH,Gust SpeedMPH,PrecipitationIn,Events,Conditions,WindDirDegrees,DateUTC
12:20 AM,55.4,53.6,94,29.98,5.0,ENE,4.6,-,N/A,,Partly Cloudy,70,2013-08-22 23:20:00
12:50 AM,55.4,55.4,100,29.98,4.3,ENE,6.9,-,N/A,,Partly Cloudy,70,2013-08-22 23:50:00
1:20 AM,55.4,55.4,100,29.98,4.3,East,5.8,-,N/A,,Scattered Clouds,80,2013-08-23 00:20:00
1:50 AM,55.4,53.6,94,29.98,4.3,East,2.3,-,N/A,,Mostly Cloudy,90,2013-08-23 00:50:00
2:20 AM,55.4,53.6,94,29.98,4.3,Calm,Calm,-,N/A,,Mostly Cloudy,0,2013-08-23 01:20:00
2:50 AM,55.4,55.4,100,29.95,-9999.0,East,5.8,-,N/A,,Mostly Cloudy,80,2013-08-23 01:50:00
3:20 AM,55.4,53.6,94,29.95,-9999.0,East,4.6,-,N/A,,Mostly Cloudy,100,2013-08-23 02:20:00
3:50 AM,55.4,53.6,94,29.95,1.2,Variable,3.5,-,N/A,,Overcast,0,2013-08-23 02:50:00
4:20 AM,53.6,53.6,100,29.95,4.3,SSE,2.3,-,N/A,,Scattered Clouds,160,2013-08-23 03:20:00
4:50 AM,53.6,53.6,100,29.95,4.3,SE,2.3,-,N/A,,Scattered Clouds,130,2013-08-23 03:50:00
5:20 AM,53.6,51.8,94,29.95,3.1,SSE,3.5,-,N/A,,Haze,150,2013-08-23 04:20:00
5:50 AM,53.6,51.8,94,29.92,-9999.0,East,2.3,-,N/A,,Mostly Cloudy,100,2013-08-23 04:50:00
6:20 AM,55.4,53.6,94,29.92,-9999.0,East,4.6,-,N/A,,Mostly Cloudy,100,2013-08-23 05:20:00
6:50 AM,55.4,55.4,100,29.92,2.2,Variable,3.5,-,N/A,,Mostly Cloudy,0,2013-08-23 05:50:00
7:20 AM,57.2,55.4,94,29.92,4.3,East,6.9,-,N/A,,Mostly Cloudy,80,2013-08-23 06:20:00
7:50 AM,57.2,55.4,94,29.92,-9999.0,East,4.6,-,N/A,,Mostly Cloudy,90,2013-08-23 06:50:00
8:20 AM,57.2,57.2,100,29.92,3.1,ENE,5.8,-,N/A,,Haze,70,2013-08-23 07:20:00
8:50 AM,59.0,57.2,94,29.92,4.3,East,5.8,-,N/A,,Mostly Cloudy,90,2013-08-23 07:50:00
9:20 AM,59.0,57.2,94,29.92,5.6,East,6.9,-,N/A,,Scattered Clouds,80,2013-08-23 08:20:00
9:50 AM,60.8,57.2,88,29.89,5.0,ENE,8.1,-,N/A,,Scattered Clouds,70,2013-08-23 08:50:00
10:20 AM,64.4,59.0,83,29.89,6.2,ENE,4.6,-,N/A,,Unknown,70,2013-08-23 09:20:00
10:50 AM,64.4,59.0,83,29.89,6.2,ENE,4.6,-,N/A,,Scattered Clouds,60,2013-08-23 09:50:00
11:20 AM,64.4,60.8,88,29.89,5.6,Variable,2.3,-,N/A,,Mostly Cloudy,0,2013-08-23 10:20:00
11:50 AM,66.2,59.0,78,29.89,6.2,Variable,2.3,-,N/A,,Mostly Cloudy,0,2013-08-23 10:50:00
12:20 PM,66.2,59.0,78,29.89,6.2,SE,5.8,-,N/A,,Mostly Cloudy,130,2013-08-23 11:20:00
12:50 PM,66.2,59.0,78,29.89,6.2,SSE,5.8,-,N/A,,Mostly Cloudy,160,2013-08-23 11:50:00
1:20 PM,68.0,59.0,73,29.89,6.2,South,8.1,-,N/A,,Scattered Clouds,190,2013-08-23 12:20:00
1:50 PM,69.8,60.8,73,29.89,6.2,South,6.9,-,N/A,,Mostly Cloudy,170,2013-08-23 12:50:00
2:20 PM,68.0,59.0,73,29.86,6.2,SSE,8.1,-,N/A,,Mostly Cloudy,150,2013-08-23 13:20:00
2:50 PM,68.0,59.0,73,29.86,6.2,SSE,6.9,-,N/A,Rain,Light Rain,150,2013-08-23 13:50:00
3:20 PM,66.2,60.8,83,29.86,6.2,South,6.9,-,N/A,Rain,Light Rain,190,2013-08-23 14:20:00
3:50 PM,68.0,60.8,78,29.86,6.2,South,9.2,-,N/A,,Mostly Cloudy,180,2013-08-23 14:50:00
4:20 PM,68.0,60.8,78,29.86,6.2,South,6.9,-,N/A,,Mostly Cloudy,170,2013-08-23 15:20:00
4:50 PM,66.2,62.6,88,29.86,6.2,SW,8.1,-,N/A,Rain,Light Rain,230,2013-08-23 15:50:00
5:20 PM,66.2,60.8,83,29.86,6.2,WSW,8.1,-,N/A,,Mostly Cloudy,240,2013-08-23 16:20:00
5:50 PM,64.4,60.8,88,29.86,6.2,WSW,6.9,-,N/A,Rain,Light Rain,240,2013-08-23 16:50:00
6:20 PM,62.6,59.0,88,29.89,6.2,WSW,6.9,-,N/A,Rain,Light Rain,250,2013-08-23 17:20:00
6:50 PM,62.6,59.0,88,29.89,6.2,South,4.6,-,N/A,,Scattered Clouds,190,2013-08-23 17:50:00
7:20 PM,62.6,57.2,82,29.89,6.2,South,5.8,-,N/A,,Scattered Clouds,170,2013-08-23 18:20:00
7:50 PM,60.8,55.4,82,29.89,6.2,SSW,6.9,-,N/A,,Scattered Clouds,200,2013-08-23 18:50:00
8:20 PM,59.0,53.6,82,29.89,6.2,WSW,6.9,-,N/A,,Scattered Clouds,250,2013-08-23 19:20:00
8:50 PM,59.0,53.6,82,29.89,6.2,WSW,4.6,-,N/A,,Partly Cloudy,250,2013-08-23 19:50:00
9:20 PM,57.2,53.6,88,29.89,6.2,West,2.3,-,N/A,,Scattered Clouds,260,2013-08-23 20:20:00
9:50 PM,57.2,53.6,88,29.92,6.2,WSW,3.5,-,N/A,,Partly Cloudy,240,2013-08-23 20:50:00
10:20 PM,57.2,53.6,88,29.92,6.2,Variable,2.3,-,N/A,,Partly Cloudy,0,2013-08-23 21:20:00
10:50 PM,57.2,55.4,94,29.92,6.2,Calm,Calm,-,N/A,,Partly Cloudy,0,2013-08-23 21:50:00
11:20 PM,57.2,55.4,94,29.92,6.2,ENE,3.5,-,N/A,,Light Drizzle,60,2013-08-23 22:20:00
11:50 PM,57.2,53.6,88,29.89,6.2,Calm,Calm,-,N/A,,Scattered Clouds,0,2013-08-23 22:50:00